{"data":{"norad_id":43752,"epoch":"2026-05-25T05:11:30.784992Z","epoch_age_seconds":55590,"freshness":"FRESH","line1":"1 43752U 18097B   26145.21632853  .00000137  00000+0  91445-3 0  9990","line2":"2 43752  82.5192 237.5856 0017999 105.4835 254.8233 12.42912879339453","mean_motion":12.42912879,"eccentricity":0.0017999,"inclination_deg":82.5192,"raan_deg":237.5856,"arg_perigee_deg":105.4835,"mean_anomaly_deg":254.8233,"bstar":0.00091445,"rev_number":33945,"period_min":115.85687334406,"perigee_km":1480.1096893292,"apogee_km":1508.4488133508,"semimajor_km":7872.41625134,"source":"CELESTRAK","updated_at":"2026-05-25T13:37:55.891479Z"}}